Location: ?????
(38.3715°N, 23.0573°E)
Time: 16:17:04
(UTC+00:00)

Meteor 1-26 Rocket - Pass Details

Date: 03 August 2024
Orbit: 805 x 928 km, 81.3° (Epoch: 11 September)

Event Time Altitude Azimuth Distance (km) Brightness Sun altitude
Rises 20:20:42 0° 351° (N) 3,481 8.4 -26.3°
Reaches altitude 10° 20:23:07 10° 352° (N) 2,557 7.5 -26.5°
Maximum altitude 20:28:59 86° 80° (E) 913 4.2 -27.2°
Enters shadow 20:29:24 78° 152° (SSE) 929 4.1 -27.2°
